Weather History for Chadron, NE

Change the Weather History Date:

Wednesday, May 13, 2009

  Actual Average Record
Temperature  
Mean Temperature 46 °F 55 °F  
Max Temperature 60 °F 70 °F 94 °F (2013)
Min Temperature 31 °F 40 °F 21 °F (1953)
Degree Days  
Heating Degree Days 19 11  
Month to date heating degree days 198 165  
Since 1 July heating degree days 6698 6928  
Cooling Degree Days 0 0  
Month to date cooling degree days 0 0  
Year to date cooling degree days 0 2  
Moisture  
Dew Point 28 °F    
Average Humidity 50    
Maximum Humidity 80    
Minimum Humidity 19    
Precipitation  
Precipitation 0.00 in 0.08 in 1.12 in (1961)
Month to date precipitation 0.30 1.08  
Year to date precipitation 5.91 5.26  
Sea Level Pressure  
Sea Level Pressure 29.90 in    
Wind  
Wind Speed 17 mph (WNW)    
Max Wind Speed 40 mph    
Max Gust Speed 49 mph    
Visibility 9 miles    
Events      
T = Trace of Precipitation, MM = Missing Value Source: NWS Daily Summary

Daily Weather History Graph

Daily Weather History Graph

Search for Another Location

Airport:

Trip Planner

Search our weather history database for the weather conditions in past years. The results will help you decide how hot, cold, wet, or windy it might be!

Date:

Astronomy

May. 13, 2009 Rise Set
Actual Time 5:31 AM MDT 8:06 PM MDT
Civil Twilight 4:59 AM MDT 8:39 PM MDT
Nautical Twilight 4:18 AM MDT 9:19 PM MDT
Astronomical Twilight 3:33 AM MDT 10:05 PM MDT
Moon No Moon Rise 8:41 AM MDT (5/13)
Length of Visible Light 15h 39m
Length of Day
14h 35m
Waning Gibbous, 81% of the Moon is Illuminated
May 13
Waning Gibbous
May 17
Last Quarter
May 24
New
May 30
First Quarter
Jun 7
Full

Hourly Weather History & Observations

Time (MDT) Temp. Windchill Dew Point Humidity Pressure Visibility Wind Dir Wind Speed Gust Speed Precip Events Conditions
12:53 AM 48.0 °F - 43.0 °F 83% 29.62 in 10.0 mi NW 5.8 mph - N/A   Clear
1:53 AM 48.0 °F - 39.9 °F 74% 29.64 in 10.0 mi Calm Calm - N/A   Clear
2:53 AM 46.0 °F 40.2 °F 36.0 °F 68% 29.67 in 10.0 mi WNW 12.7 mph 21.9 mph N/A   Clear
3:53 AM 45.0 °F 36.2 °F 37.0 °F 74% 29.68 in 10.0 mi WNW 24.2 mph 29.9 mph N/A   Clear
4:53 AM 43.0 °F 36.0 °F 36.0 °F 76% 29.71 in 10.0 mi WNW 13.8 mph 21.9 mph N/A   Clear
5:53 AM 42.1 °F 36.6 °F 35.1 °F 76% 29.73 in 10.0 mi West 9.2 mph - N/A   Clear
6:53 AM 44.1 °F 37.1 °F 33.1 °F 65% 29.77 in 10.0 mi West 15.0 mph 20.7 mph N/A   Clear
7:53 AM 48.0 °F - 30.0 °F 50% 29.81 in 10.0 mi WNW 12.7 mph 21.9 mph N/A   Clear
8:53 AM 50.0 °F - 26.1 °F 39% 29.85 in 2.0 mi WNW 19.6 mph 24.2 mph N/A   Haze
9:04 AM 50.0 °F - 24.8 °F 37% 29.86 in 10.0 mi WNW 17.3 mph 26.5 mph N/A   Clear
9:53 AM 51.1 °F - 26.1 °F 38% 29.90 in 10.0 mi WNW 23.0 mph 29.9 mph N/A   Scattered Clouds
10:10 AM 51.8 °F - 24.8 °F 35% 29.89 in 2.0 mi WNW 15.0 mph 24.2 mph N/A   Haze
10:19 AM 50.0 °F - 26.6 °F 40% 29.89 in 10.0 mi NW 11.5 mph - N/A   Scattered Clouds
10:30 AM 50.0 °F - 26.6 °F 40% 29.89 in 2.5 mi WNW 15.0 mph 20.7 mph N/A   Haze
10:39 AM 50.0 °F - 24.8 °F 37% 29.90 in 10.0 mi West 19.6 mph 27.6 mph N/A   Scattered Clouds
10:53 AM 52.0 °F - 27.0 °F 38% 29.91 in 10.0 mi WNW 20.7 mph 28.8 mph N/A   Partly Cloudy
11:53 AM 55.9 °F - 18.0 °F 23% 29.91 in 10.0 mi West 33.4 mph 44.9 mph N/A   Clear
12:53 PM 57.9 °F - 18.0 °F 21% 29.91 in 10.0 mi WNW 32.2 mph 39.1 mph N/A   Partly Cloudy
1:53 PM 59.0 °F - 18.0 °F 20% 29.93 in 10.0 mi WNW 27.6 mph 40.3 mph N/A   Clear
2:07 PM 60.8 °F - 19.4 °F 20% 29.93 in 2.0 mi WNW 25.3 mph 42.6 mph N/A   Haze
2:16 PM 59.0 °F - 19.4 °F 22% 29.93 in 10.0 mi WNW 29.9 mph 42.6 mph N/A   Partly Cloudy
2:53 PM 59.0 °F - 19.0 °F 21% 29.91 in 10.0 mi WNW 34.5 mph 46.0 mph N/A   Clear
3:53 PM 59.0 °F - 23.0 °F 25% 29.95 in 10.0 mi WNW 29.9 mph 48.3 mph N/A   Clear
4:53 PM 55.9 °F - 25.0 °F 30% 30.00 in 10.0 mi NNW 21.9 mph 43.7 mph N/A   Clear
5:53 PM 55.9 °F - 27.0 °F 33% 30.02 in 10.0 mi NW 24.2 mph 40.3 mph N/A   Clear
6:53 PM 53.1 °F - 28.0 °F 38% 30.06 in 10.0 mi NNW 19.6 mph 27.6 mph N/A   Clear
7:53 PM 48.0 °F - 30.0 °F 50% 30.09 in 10.0 mi NNW 5.8 mph - N/A   Clear
8:53 PM 42.1 °F - 28.9 °F 60% 30.12 in 10.0 mi Calm Calm - N/A   Clear
9:53 PM 41.0 °F 38.0 °F 28.9 °F 62% 30.12 in 10.0 mi NNW 4.6 mph - N/A   Clear
10:53 PM 39.0 °F 31.8 °F 28.9 °F 67% 30.14 in 10.0 mi SSW 11.5 mph - N/A   Clear
11:53 PM 34.0 °F 28.0 °F 27.0 °F 75% 30.13 in 10.0 mi West 6.9 mph - N/A   Clear